カタログに戻る

HULIANWANG DIGUI-48

運用中通信LEO
NORAD 65051·PAYLOAD·🇨🇳 China

打ち上げ Jul 30, 2025 から Wenchang Space Launch Site

Loading…

次のパス (今後24時間)

TLE

最新Source: Space-Track

元期: Sep 14, 2026, 13:30 UTC

1 65051U 25162J   26257.56275459 -.00000081  00000-0  93119-4 0  9995
2 65051  50.0044 304.9135 0000649 259.6937 100.3862 13.29326176 55254

AllMySatでHULIANWANG DIGUI-48をリアルタイム追跡

Download on the App Store